�N����,����,�~����,�C��,���x,�C��,����,���ϕ���,�ő�u�ԕ���,�ő厞����,���˗�,�I�_���x,�n�����x,�ő啗���N��,DTYPE
"21/09/21","00:10",0.0,23.1,73.9,1010.2,37.6,0.6,1.3,24.7,0.00,18.2,24.2,"00:02:08",1
"21/09/21","00:20",0.0,22.9,74.6,1010.2,21.9,0.6,1.2,314.2,0.00,18.2,24.5,"00:15:36",1
"21/09/21","00:30",0.0,22.7,75.0,1010.4,342.4,0.3,1.1,350.0,0.00,18.1,24.1,"00:21:44",1
"21/09/21","00:40",0.0,22.6,75.3,1010.4,23.5,0.6,2.0,40.0,0.00,18.0,24.2,"00:37:12",1
"21/09/21","00:50",0.0,22.8,75.0,1010.4,14.5,0.7,1.8,78.5,0.00,18.2,24.1,"00:41:20",1
"21/09/21","01:00",0.0,22.8,74.8,1010.2,341.1,0.5,1.6,88.6,0.00,18.1,24.2,"00:51:52",1
"21/09/21","01:10",0.0,22.5,75.4,1010.2,305.4,0.5,1.3,327.0,0.00,18.0,24.2,"01:09:20",1
"21/09/21","01:20",0.0,22.4,75.9,1010.4,0.2,0.5,1.1,298.5,0.00,18.0,24.1,"01:12:40",1
"21/09/21","01:30",0.0,22.2,76.3,1010.2,308.3,0.5,1.0,297.9,0.00,17.9,24.0,"01:26:32",1
"21/09/21","01:40",0.0,22.1,77.1,1010.2,324.9,0.5,1.1,321.7,0.00,17.9,23.9,"01:37:12",1
"21/09/21","01:50",0.0,21.7,77.7,1010.4,291.4,0.5,1.2,321.4,0.00,17.7,24.1,"01:49:12",1
"21/09/21","02:00",0.0,21.2,78.8,1010.2,316.5,1.0,1.4,334.7,0.00,17.4,24.0,"01:51:44",1
"21/09/21","02:10",0.0,20.8,80.0,1010.0,303.2,0.7,1.2,308.3,0.00,17.3,24.0,"02:01:20",1
"21/09/21","02:20",0.0,20.5,81.4,1010.0,285.6,0.6,1.1,327.4,0.00,17.2,24.0,"02:19:52",1
"21/09/21","02:30",0.0,20.2,82.7,1010.0,322.0,1.0,1.6,339.0,0.00,17.2,24.1,"02:20:02",1
"21/09/21","02:40",0.0,20.1,83.9,1009.7,316.5,0.8,1.8,340.0,0.00,17.3,23.9,"02:30:16",1
"21/09/21","02:50",0.0,20.1,85.0,1010.0,293.6,1.0,1.3,329.1,0.00,17.5,24.1,"02:48:40",1
"21/09/21","03:00",0.0,19.8,85.8,1010.0,317.1,0.7,1.6,320.7,0.00,17.4,23.9,"02:50:02",1
"21/09/21","03:10",0.0,19.8,86.5,1010.0,317.7,0.7,1.8,310.9,0.00,17.5,23.7,"03:06:32",1
"21/09/21","03:20",0.0,20.6,87.3,1010.2,334.5,0.7,1.7,126.7,0.00,18.5,23.8,"03:16:00",1
"21/09/21","03:30",0.0,21.3,87.2,1010.0,16.3,0.6,1.6,66.3,0.00,19.1,23.8,"03:24:00",1
"21/09/21","03:40",0.0,21.5,86.6,1010.0,37.9,0.6,1.9,57.8,0.00,19.2,23.8,"03:36:48",1
"21/09/21","03:50",0.0,21.7,85.6,1009.7,10.1,0.6,2.0,25.0,0.00,19.2,23.7,"03:40:32",1
"21/09/21","04:00",0.0,21.8,84.6,1010.2,30.7,0.6,2.4,63.9,0.00,19.1,23.8,"03:51:52",1
"21/09/21","04:10",0.0,22.0,83.2,1010.0,39.3,0.8,1.9,101.1,0.00,19.1,23.7,"04:03:44",1
"21/09/21","04:20",0.0,22.0,81.9,1009.7,48.7,0.7,1.9,66.8,0.00,18.8,23.5,"04:16:08",1
"21/09/21","04:30",0.0,22.0,80.8,1010.0,41.2,0.7,1.7,71.1,0.00,18.6,23.6,"04:21:04",1
"21/09/21","04:40",0.0,22.0,80.2,1010.2,32.2,0.6,1.3,141.6,0.00,18.5,23.6,"04:32:32",1
"21/09/21","04:50",0.0,21.9,79.4,1010.2,20.0,0.7,2.2,98.7,0.00,18.2,23.7,"04:41:36",1
"21/09/21","05:00",0.0,22.0,78.6,1010.0,63.6,0.8,1.8,66.6,0.00,18.2,23.6,"04:58:00",1
"21/09/21","05:10",0.0,22.0,78.1,1010.2,56.4,0.7,1.9,126.1,0.00,18.0,23.6,"05:07:12",1
"21/09/21","05:20",0.0,21.8,77.5,1010.2,16.5,0.8,2.1,19.3,0.00,17.7,23.8,"05:10:48",1
"21/09/21","05:30",0.0,21.9,77.0,1010.2,28.3,0.7,1.4,141.8,0.00,17.7,23.3,"05:20:08",1
"21/09/21","05:40",0.0,21.9,76.9,1010.0,5.2,0.6,1.8,135.7,0.00,17.7,23.4,"05:30:24",1
"21/09/21","05:50",0.0,22.0,76.4,1010.0,30.1,1.1,4.0,126.1,0.00,17.7,23.3,"05:40:16",1
"21/09/21","06:00",0.0,22.0,75.9,1010.0,39.4,1.0,2.1,85.9,0.00,17.6,23.5,"05:58:08",1
"21/09/21","06:10",0.0,22.0,75.7,1010.2,18.2,0.7,2.6,83.4,0.00,17.6,23.5,"06:00:24",1
"21/09/21","06:20",0.0,21.9,75.7,1010.2,15.9,0.6,1.3,128.0,0.00,17.5,23.2,"06:10:08",1
"21/09/21","06:30",0.0,22.0,75.9,1010.4,313.9,0.6,1.3,199.8,0.00,17.6,23.4,"06:27:04",1
"21/09/21","06:40",0.0,22.1,76.0,1010.2,333.1,0.6,1.6,113.4,0.00,17.7,23.2,"06:31:52",1
"21/09/21","06:50",0.0,22.5,75.4,1010.4,33.0,0.3,1.0,101.6,0.01,18.0,23.5,"06:40:32",1
"21/09/21","07:00",0.0,22.9,74.9,1010.4,247.5,0.2,0.9,317.6,0.02,18.3,23.1,"06:56:40",1
"21/09/21","07:10",0.0,23.4,74.2,1010.2,150.7,0.2,1.0,119.5,0.03,18.6,23.2,"07:06:32",1
"21/09/21","07:20",0.0,23.8,73.0,1010.2,121.2,0.5,2.0,172.2,0.05,18.7,23.3,"07:16:48",1
"21/09/21","07:30",0.0,24.1,71.7,1010.4,120.3,0.7,1.8,133.9,0.07,18.7,23.2,"07:25:36",1
"21/09/21","07:40",0.0,24.4,69.8,1010.2,97.1,0.8,2.2,108.2,0.10,18.6,23.1,"07:36:32",1
"21/09/21","07:50",0.0,24.7,68.6,1010.2,99.3,0.8,1.9,110.7,0.12,18.6,23.2,"07:41:36",1
"21/09/21","08:00",0.0,25.1,66.6,1010.0,98.8,1.0,2.8,119.2,0.15,18.5,23.1,"07:59:52",1
"21/09/21","08:10",0.0,25.3,65.9,1010.0,104.4,1.1,2.4,138.7,0.18,18.5,23.5,"08:04:00",1
"21/09/21","08:20",0.0,25.3,63.9,1010.0,136.8,1.1,2.7,178.6,0.20,18.0,23.1,"08:17:36",1
"21/09/21","08:30",0.0,25.5,63.1,1009.7,160.3,1.6,2.9,189.8,0.23,18.0,23.2,"08:21:52",1
"21/09/21","08:40",0.0,25.7,62.8,1009.5,142.0,1.5,3.2,130.4,0.26,18.1,23.3,"08:37:12",1
"21/09/21","08:50",0.0,26.0,62.3,1009.3,134.8,1.2,3.3,205.3,0.28,18.3,23.2,"08:42:48",1
"21/09/21","09:00",0.0,26.5,61.4,1009.0,123.6,1.0,2.5,104.8,0.31,18.5,23.2,"08:55:28",1
"21/09/21","09:10",0.0,26.3,60.9,1008.8,110.8,1.6,3.1,127.9,0.33,18.2,23.4,"09:08:00",1
"21/09/21","09:20",0.0,26.6,61.1,1008.8,129.1,1.2,3.4,103.3,0.35,18.5,23.2,"09:13:28",1
"21/09/21","09:30",0.0,27.1,59.7,1008.8,105.2,1.1,2.6,91.4,0.37,18.6,23.5,"09:22:24",1
"21/09/21","09:40",0.0,27.1,59.3,1009.0,139.6,1.1,3.1,140.6,0.39,18.5,23.3,"09:31:04",1
"21/09/21","09:50",0.0,26.8,58.8,1009.0,139.6,1.5,3.4,183.1,0.37,18.1,23.5,"09:47:28",1
"21/09/21","10:00",0.0,27.0,61.2,1009.0,154.4,2.0,4.7,213.5,0.40,18.9,23.5,"09:54:40",1
"21/09/21","10:10",0.0,27.7,59.5,1009.3,121.7,1.5,3.1,98.3,0.46,19.1,23.6,"10:02:16",1
"21/09/21","10:20",0.0,27.5,59.2,1009.0,143.0,1.6,4.1,194.1,0.42,18.9,23.4,"10:17:52",1
"21/09/21","10:30",0.0,28.1,58.2,1008.8,153.6,1.8,3.7,110.5,0.48,19.2,23.5,"10:28:48",1
"21/09/21","10:40",0.0,28.2,59.0,1008.6,165.2,1.8,3.7,182.2,0.52,19.5,23.6,"10:34:24",1
"21/09/21","10:50",0.0,28.4,57.8,1009.0,166.7,1.8,3.3,203.1,0.51,19.3,23.6,"10:41:12",1
"21/09/21","11:00",0.0,28.5,56.4,1009.3,167.5,1.7,4.5,182.5,0.52,19.0,23.8,"10:57:36",1
"21/09/21","11:10",0.0,28.9,57.0,1008.8,165.9,1.3,2.7,172.9,0.52,19.6,23.7,"11:02:00",1
"21/09/21","11:20",0.0,28.7,56.6,1008.3,152.2,1.6,4.9,306.9,0.43,19.3,23.8,"11:11:44",1
"21/09/21","11:30",0.0,29.3,55.5,1008.6,177.0,1.6,3.9,201.7,0.57,19.5,23.7,"11:28:24",1
"21/09/21","11:40",0.0,29.3,54.2,1008.6,154.6,1.6,3.5,151.1,0.50,19.1,23.8,"11:35:52",1
"21/09/21","11:50",0.0,29.4,53.3,1008.3,107.4,1.1,3.3,142.6,0.39,19.0,23.7,"11:41:52",1
"21/09/21","12:00",0.0,28.9,54.0,1007.8,142.2,1.6,3.5,125.7,0.36,18.7,24.0,"11:59:36",1
"21/09/21","12:10",0.0,29.1,56.1,1007.6,150.6,1.6,3.3,120.5,0.40,19.5,24.0,"12:06:08",1
"21/09/21","12:20",0.0,29.1,54.5,1007.8,171.7,2.0,4.5,197.7,0.43,19.0,24.1,"12:13:28",1
"21/09/21","12:30",0.0,29.4,55.4,1008.1,132.7,1.2,2.8,203.3,0.36,19.6,24.2,"12:20:24",1
"21/09/21","12:40",0.0,29.3,55.3,1007.8,183.0,2.0,4.7,228.8,0.37,19.5,24.2,"12:33:20",1
"21/09/21","12:50",0.0,30.2,54.1,1007.8,155.2,1.3,2.8,189.3,0.51,19.9,24.2,"12:44:56",1
"21/09/21","13:00",0.0,30.2,55.4,1007.8,156.3,1.3,3.9,159.0,0.49,20.3,24.5,"12:53:04",1
"21/09/21","13:10",0.0,30.2,52.9,1008.1,131.3,1.3,2.9,164.0,0.45,19.6,24.2,"13:05:44",1
"21/09/21","13:20",0.0,29.9,54.7,1007.6,116.5,1.2,3.3,123.0,0.32,19.8,24.6,"13:12:16",1
"21/09/21","13:30",0.0,29.6,56.0,1007.8,132.3,1.5,3.7,140.6,0.34,19.9,24.4,"13:23:52",1
"21/09/21","13:40",0.0,30.2,56.9,1007.6,130.4,1.3,3.2,153.7,0.46,20.8,24.6,"13:36:32",1
"21/09/21","13:50",0.0,30.0,56.7,1007.6,144.9,1.2,2.9,91.1,0.35,20.5,24.7,"13:42:40",1
"21/09/21","14:00",0.0,30.0,55.8,1007.6,156.1,1.6,4.1,216.0,0.39,20.2,24.7,"13:53:44",1
"21/09/21","14:10",0.0,29.7,57.2,1007.1,153.4,1.5,2.9,116.5,0.31,20.4,24.7,"14:02:08",1
"21/09/21","14:20",0.0,30.4,54.9,1007.6,104.6,1.2,2.5,102.2,0.43,20.4,24.7,"14:10:02",1
"21/09/21","14:30",0.0,30.3,56.0,1007.4,85.0,1.3,3.6,168.2,0.40,20.6,24.8,"14:27:28",1
"21/09/21","14:40",0.0,30.5,55.5,1007.1,105.6,1.2,2.5,127.3,0.38,20.6,24.8,"14:37:52",1
"21/09/21","14:50",0.0,30.9,53.9,1007.4,123.2,1.3,2.8,154.3,0.47,20.5,25.0,"14:44:00",1
"21/09/21","15:00",0.0,29.7,57.2,1007.4,131.5,1.3,3.6,124.8,0.21,20.4,25.0,"14:53:20",1
"21/09/21","15:10",0.0,29.1,58.9,1006.2,117.3,1.0,2.4,111.1,0.09,20.3,25.1,"15:08:08",1
"21/09/21","15:20",0.0,28.3,61.9,1006.2,155.0,1.8,3.6,157.5,0.15,20.3,25.2,"15:13:44",1
"21/09/21","15:30",0.0,28.6,61.6,1006.0,130.0,1.6,3.2,142.4,0.20,20.5,25.2,"15:27:44",1
"21/09/21","15:40",0.0,29.0,60.6,1006.4,115.9,1.6,4.5,96.0,0.25,20.7,25.3,"15:33:12",1
"21/09/21","15:50",0.0,29.2,60.8,1006.4,129.2,1.6,3.9,110.3,0.31,20.9,25.5,"15:49:20",1
"21/09/21","16:00",0.0,29.1,61.4,1006.4,136.1,1.6,3.5,130.9,0.25,21.0,25.3,"15:51:44",1
"21/09/21","16:10",0.0,29.2,60.5,1006.2,117.1,1.5,3.5,116.3,0.24,20.8,25.1,"16:00:24",1
"21/09/21","16:20",0.0,28.8,60.8,1006.2,113.0,1.2,3.2,118.9,0.15,20.5,25.3,"16:12:08",1
"21/09/21","16:30",0.0,28.1,62.6,1006.0,99.5,1.3,2.6,85.6,0.12,20.3,25.1,"16:25:44",1
"21/09/21","16:40",0.0,28.0,63.2,1006.2,100.5,1.5,3.9,120.0,0.13,20.4,25.4,"16:34:40",1
"21/09/21","16:50",0.0,27.8,63.2,1006.0,89.6,1.3,3.5,119.6,0.11,20.2,25.3,"16:45:04",1
"21/09/21","17:00",0.0,27.1,65.1,1005.7,125.9,1.1,3.2,85.3,0.05,20.0,25.1,"16:52:56",1
"21/09/21","17:10",0.0,26.7,66.5,1005.0,111.0,1.1,3.1,99.8,0.03,20.0,25.3,"17:02:56",1
"21/09/21","17:20",0.0,26.5,67.1,1005.7,101.4,1.1,2.8,125.2,0.02,19.9,25.6,"17:14:56",1
"21/09/21","17:30",0.0,26.1,68.1,1005.7,126.0,1.1,2.5,166.6,0.01,19.8,25.3,"17:23:12",1
"21/09/21","17:40",0.0,26.1,68.8,1006.0,122.7,1.0,2.5,136.1,0.01,20.0,25.4,"17:30:32",1
"21/09/21","17:50",0.0,25.8,69.4,1006.0,156.4,1.3,2.8,181.7,0.00,19.8,25.2,"17:41:36",1
"21/09/21","18:00",0.0,25.7,70.2,1006.4,139.5,1.0,3.1,129.5,0.00,19.9,25.5,"17:59:28",1
"21/09/21","18:10",0.0,25.6,70.7,1006.0,102.0,1.2,3.1,117.4,0.00,19.9,25.2,"18:01:52",1
"21/09/21","18:20",0.0,25.3,71.6,1006.0,129.9,1.0,2.7,137.9,0.00,19.8,25.2,"18:12:00",1
"21/09/21","18:30",0.0,25.2,71.8,1006.2,90.4,1.2,2.5,106.4,0.00,19.8,25.2,"18:23:04",1
"21/09/21","18:40",0.0,25.2,72.4,1006.2,89.1,1.0,3.3,130.1,0.00,19.9,25.3,"18:31:44",1
"21/09/21","18:50",0.0,25.0,73.4,1006.7,112.2,1.2,3.2,114.8,0.00,20.0,25.0,"18:42:56",1
"21/09/21","19:00",0.0,24.8,74.4,1006.7,98.9,1.3,3.2,46.7,0.00,20.0,25.2,"18:52:56",1
"21/09/21","19:10",0.0,24.7,74.9,1006.9,111.2,1.3,3.4,123.8,0.00,20.0,25.1,"19:01:20",1
"21/09/21","19:20",0.0,24.7,75.1,1006.9,87.3,1.1,3.1,106.0,0.00,20.0,25.2,"19:15:12",1
"21/09/21","19:30",0.0,24.6,75.7,1007.1,105.4,1.1,3.3,129.4,0.00,20.1,25.1,"19:28:48",1
"21/09/21","19:40",0.0,24.2,77.6,1007.1,93.1,1.1,2.2,133.1,0.00,20.1,25.1,"19:37:44",1
"21/09/21","19:50",0.0,23.6,79.9,1007.4,60.1,0.6,1.9,135.9,0.00,20.0,25.1,"19:40:40",1
"21/09/21","20:00",0.0,23.2,81.6,1007.4,326.8,0.8,1.6,346.1,0.00,19.9,25.1,"19:51:44",1
"21/09/21","20:10",0.0,23.1,82.9,1007.1,314.0,0.8,1.7,305.4,0.00,20.1,25.0,"20:08:48",1
"21/09/21","20:20",0.0,22.9,84.1,1007.6,328.2,1.3,3.1,326.9,0.00,20.1,24.9,"20:13:12",1
"21/09/21","20:30",0.0,22.9,85.0,1007.6,319.7,0.5,1.4,332.3,0.00,20.3,24.9,"20:21:04",1
"21/09/21","20:40",0.0,22.9,85.5,1007.8,340.8,0.7,1.6,352.0,0.00,20.4,24.8,"20:36:32",1
"21/09/21","20:50",0.0,22.9,86.1,1007.6,318.2,1.1,2.0,336.9,0.00,20.5,24.8,"20:42:56",1
"21/09/21","21:00",0.0,22.9,86.7,1007.8,346.0,0.6,1.2,338.7,0.00,20.6,24.7,"20:57:28",1
"21/09/21","21:10",0.0,22.9,87.1,1007.8,342.7,0.6,1.4,330.0,0.00,20.7,25.0,"21:02:32",1
"21/09/21","21:20",0.0,22.7,87.5,1007.6,317.7,0.8,1.6,333.0,0.00,20.6,24.8,"21:10:16",1
"21/09/21","21:30",0.2,22.7,87.9,1007.6,333.5,1.2,1.7,343.4,0.00,20.6,24.6,"21:29:04",1
"21/09/21","21:40",0.0,22.6,88.3,1007.6,335.1,0.8,2.1,346.5,0.00,20.6,24.8,"21:30:16",1
"21/09/21","21:50",0.0,22.6,88.6,1007.1,311.6,0.7,1.8,357.3,0.00,20.7,24.5,"21:48:08",1
"21/09/21","22:00",0.0,22.6,88.8,1007.4,329.0,1.0,1.8,345.2,0.00,20.7,24.9,"21:52:48",1
"21/09/21","22:10",0.0,22.5,89.0,1007.1,330.8,0.7,1.6,330.6,0.00,20.6,24.8,"22:03:04",1
"21/09/21","22:20",0.0,22.6,89.0,1007.6,338.4,1.0,1.7,334.6,0.00,20.7,24.8,"22:14:56",1
"21/09/21","22:30",0.0,22.6,88.9,1007.4,355.1,0.6,1.4,88.9,0.00,20.7,24.7,"22:28:16",1
"21/09/21","22:40",0.0,22.7,88.8,1007.4,20.4,0.6,2.1,355.4,0.00,20.8,24.6,"22:36:24",1
"21/09/21","22:50",0.0,22.8,88.5,1006.9,20.2,0.5,1.4,36.4,0.00,20.8,24.6,"22:44:08",1
"21/09/21","23:00",0.0,22.8,88.2,1006.9,280.3,0.7,1.8,125.6,0.00,20.8,24.6,"22:58:08",1
"21/09/21","23:10",0.0,22.9,87.6,1007.4,71.0,0.8,2.1,101.1,0.00,20.8,24.6,"23:04:00",1
"21/09/21","23:20",0.0,23.0,86.8,1007.4,118.4,1.0,2.5,135.8,0.00,20.7,24.6,"23:12:08",1
"21/09/21","23:30",0.0,23.1,86.0,1007.1,81.8,0.6,1.9,182.7,0.00,20.7,24.6,"23:20:08",1
"21/09/21","23:40",0.0,23.2,85.3,1006.7,61.9,0.7,3.1,137.1,0.00,20.6,24.4,"23:30:40",1
"21/09/21","23:50",0.0,23.1,85.0,1006.9,249.6,0.5,1.4,119.0,0.00,20.5,24.6,"23:46:56",1
"21/09/21","24:00",0.0,23.1,84.8,1006.9,196.1,0.6,1.4,189.9,0.00,20.4,24.5,"23:52:56",1
